This is the latest recevied weather packets stored in our database for station/object LU3MCV-13. If no packets are shown the sender has not sent any weather packets the latest 10 day(s).
| Time | Temp. | Humidity | Pressure | Rain* | Wind** | Luminosity | Snow |
|---|---|---|---|---|---|---|---|
| 1777705934 | 12.22° C | 16% | 945.3 hPa | - | - | - | - |
| 1777705033 | 12.22° C | 16% | 945.2 hPa | - | - | - | - |
| 1777704133 | 12.22° C | 17% | 945.2 hPa | - | - | - | - |
| 1777703233 | 12.22° C | 17% | 945.2 hPa | - | - | - | - |
| 1777702333 | 11.11° C | 18% | 945.1 hPa | - | - | - | - |
| 1777701433 | 12.22° C | 19% | 945.2 hPa | - | - | - | - |
| 1777700533 | 12.78° C | 19% | 944.9 hPa | - | - | - | - |
| 1777699633 | 12.78° C | 20% | 944.9 hPa | - | - | - | - |
| 1777698733 | 12.78° C | 20% | 944.8 hPa | - | - | - | - |
| 1777697833 | 12.22° C | 20% | 944.3 hPa | - | - | - | - |
| 1777696933 | 12.22° C | 20% | 944 hPa | - | - | - | - |
| 1777696033 | 12.78° C | 20% | 943.8 hPa | - | - | - | - |
| 1777695133 | 12.78° C | 20% | 943.7 hPa | - | - | - | - |
| 1777694233 | 13.89° C | 18% | 943.6 hPa | - | - | - | - |
| 1777693333 | 12.78° C | 16% | 943.4 hPa | - | - | - | - |
| 1777692433 | 13.89° C | 15% | 943.3 hPa | - | - | - | - |
| 1777691533 | 13.89° C | 10% | 943.2 hPa | - | - | - | - |
| 1777691525 | 13.89° C | 10% | 943.1 hPa | - | - | - | - |
| 1777689725 | 13.89° C | 10% | 943 hPa | - | - | - | - |
| 1777688825 | 15° C | 13% | 942.7 hPa | - | - | - | - |
| 1777687925 | 15° C | 13% | 942.4 hPa | - | - | - | - |
| 1777687025 | 15° C | 13% | 942.3 hPa | - | - | - | - |
| 1777686125 | 15° C | 13% | 942.3 hPa | - | - | - | - |
| 1777685225 | 15° C | 13% | 942 hPa | - | - | - | - |
| 1777684325 | 15° C | 13% | 941.5 hPa | - | - | - | - |
* Rain since midnight (hover to see other rain measurements)
** Current wind speed in m/s (hover to see current wind gust speed)